Home   Weather   Washington County   Past weeks
Flag for USA

Past Weather in Washington County, Illinois, USA — Yesterday and Last 2 Weeks

Now
16 °F

Partly sunny.


Feels Like: 2 °F
Forecast: 26 / 10 °F
Wind: 13 mph from Southeast

Location: Lambert-St. Louis International Airport

Current Time: Jan 21, 2019 at 9:56:33 am

Latest Report: Jan 21, 2019 at 9:01 am


Visibility: 10 mi

Pressure: 30.49 "Hg

Humidity: 74%

Dew Point: 9 °F

Location of Washington CountyLocation

Past Weather in Washington County — Graph

°F

Washington County Temperature Yesterday

Maximum temperature yesterday: 18 °F (at 11:51 am)
Minimum temperature yesterday: 11 °F (at 7:51 am)
Average temperature yesterday: 15 °F

High & Low Weather Summary for the Past Weeks

 TemperatureHumidityPressure
High68 °F (Jan 7, 2:51 pm)100% (Jan 17, 2:03 am)30.53 "Hg (Jan 17, 2:03 am)
Low9 °F (Jan 21, 12:51 am)32% (Jan 8, 2:51 pm)29.71 "Hg (Jan 7, 12:51 pm)
Average33 °F80%30.19 "Hg
* Reported Jan 6 9:51 am — Jan 21 9:01 am, Washington County. Weather by CustomWeather, © 2019

Note: Actual official high and low records may vary slightly from our data, if they occured in-between our weather recording intervals... More about our weather records

Advertising

Washington County Weather History for the Previous 24 Hours

Scroll right to see more
 ConditionsComfort  
Time TempWeatherWind HumidityBarometerVisibility
9:01 am
Mon, Jan 21
16 °FPartly sunny.13 mph74%30.49 "Hg10 mi
7:51 am13 °FBroken clouds.12 mph74%30.53 "Hg10 mi
6:51 am12 °FPassing clouds.10 mph73%30.53 "Hg10 mi
5:51 am12 °FOvercast.9 mph70%30.53 "Hg10 mi
4:51 am11 °FMostly cloudy.8 mph73%30.51 "Hg10 mi
3:51 am11 °FMostly cloudy.8 mph70%30.51 "Hg10 mi
2:51 am10 °FPassing clouds.6 mph76%30.50 "Hg10 mi
1:51 am10 °FPassing clouds.5 mph73%30.51 "Hg10 mi
12:51 am9 °FPassing clouds.6 mph73%30.50 "Hg10 mi
11:51 pm
Sun, Jan 20
11 °FPassing clouds.6 mph70%30.51 "Hg10 mi
10:51 pm12 °FPassing clouds.5 mph70%30.51 "Hg10 mi
9:51 pm14 °FOvercast.6 mph73%30.50 "Hg10 mi
8:51 pm14 °FOvercast.8 mph77%30.50 "Hg10 mi
7:51 pm14 °FOvercast.7 mph80%30.48 "Hg10 mi
6:51 pm14 °FLight snow. Overcast.7 mph80%30.46 "Hg9 mi
5:51 pm14 °FLight snow. Ice fog.7 mph84%30.45 "Hg2 mi
5:32 pm14 °FLight snow. Ice fog.8 mph84%30.40 "Hg2 mi
4:51 pm15 °FLight snow. Overcast.7 mph80%30.45 "Hg1 mi
4:06 pm15 °FLight snow. Ice fog.9 mph80%30.38 "Hg1 mi
3:25 pm16 °FLight snow. Mostly cloudy.8 mph80%30.37 "Hg2 mi
2:51 pm15 °FLight snow. Overcast.7 mph80%30.42 "Hg1 mi
2:41 pm16 °FLight snow. Overcast.9 mph77%30.37 "Hg1 mi
2:23 pm16 °FLight snow. Mostly cloudy.10 mph71%30.37 "Hg2 mi
2:10 pm17 °FLight snow. Overcast.10 mph62%30.37 "Hg3 mi
1:51 pm18 °FOvercast.9 mph54%30.41 "Hg10 mi
12:51 pm18 °FMostly cloudy.10 mph59%30.40 "Hg10 mi
11:51 am18 °FCloudy.7 mph62%30.41 "Hg10 mi
10:51 am16 °FBroken clouds.No wind67%30.42 "Hg10 mi
9:51 am15 °FPartly sunny.5 mph70%30.40 "Hg10 mi
Weather by CustomWeather, © 2019

See weather overview